Flag for Austria Weather past 2 weeks in Melk, Lower Austria, Austria

Now
55 °F

Cool.


Feels Like: 54 °F
Forecast: 33 / 64 °F
Wind: 6 mph from West

Location: Amstetten

Current Time: Sep 23, 2014 at 2:36:04 PM

Latest Report: Sep 23, 2014 at 1:00 PM


Visibility: N/A

Pressure: 30.14 "Hg

Humidity: 71%

Dew point: 46 °F

Location of MelkLocation

Historic Weather in Melk — Graph

°F

Melk temperature yesterday

Maximum temperature yesterday: 60 °F (at 1:00 AM)
Minimum temperature yesterday: 48 °F (at 10:00 PM)
Average temperature yesterday: 55 °F

Past Weeks' High & Low Weather Summary

 TemperatureHumidityPressure
High79 °F (Sep 8, 4:00 PM)100% (Sep 15, 2:00 AM)30.15 "Hg (Sep 15, 2:00 AM)
Low47 °F (Sep 23, 6:00 AM)40% (Sep 17, 5:00 PM)29.86 "Hg (Sep 22, 1:00 AM)
Average61 °F85%29.99 "Hg
* Reported Sep 8 1:00 PM — Sep 23 1:00 PM, Melk, Weather by CustomWeather, © 2014

Note: Actual official high and low records may vary slightly from our data, if they occured in-between our weather recording intervals... More about our weather records

Advertising

Melk weather history for previous 24 hours

 ConditionsComfort  
Time TempWeatherWind HumidityBarometerVisibility
1:00 PM
Sep 23
55 °FCool.6 mph71%30.14 "HgN/A
12:00 PM53 °FCool.5 mph79%30.15 "HgN/A
11:00 AMN/APassing clouds.20 mphN/AN/A1 mi
10:00 AM49 °FCool.5 mph88%30.14 "HgN/A
9:00 AM48 °FFog.3 mph92%30.11 "HgN/A
8:00 AM48 °FSprinkles. Overcast.5 mph92%30.09 "HgN/A
7:00 AM48 °FCool.3 mph93%30.07 "HgN/A
6:00 AM47 °FCool.3 mph94%30.06 "HgN/A
5:00 AM47 °FCool.3 mph92%30.04 "HgN/A
4:00 AM47 °FCool.3 mph91%30.04 "HgN/A
3:00 AM48 °FCool.3 mph90%30.04 "HgN/A
2:00 AM48 °FCool.3 mph86%30.05 "HgN/A
1:00 AM48 °FCool.3 mph89%30.06 "HgN/A
12:00 AM48 °FCool.3 mph92%30.05 "HgN/A
11:00 PM
Sep 22
48 °FCool.3 mph94%30.03 "HgN/A
10:00 PM48 °FCool.5 mph92%30.03 "HgN/A
9:00 PM49 °FSprinkles. Overcast.3 mph90%30.03 "HgN/A
8:00 PM51 °FCool.1 mph85%29.98 "HgN/A
7:00 PM52 °FCool.2 mph77%29.96 "HgN/A
6:00 PM54 °FCool.3 mph78%29.96 "HgN/A
5:00 PM51 °FFog.2 mph86%29.95 "HgN/A
4:00 PM60 °FRefreshingly cool.6 mph58%29.91 "HgN/A
3:00 PM59 °FCool.3 mph62%29.92 "HgN/A
2:00 PM55 °FCool.5 mph81%29.94 "HgN/A
Weather by CustomWeather, © 2014

See weather overviewHow to use our weather pages